promio.net - Durch Werbung Geld verdienen! Infomails.de



www.awekas.at



Wetterübersicht - Penzberg,Oberbayern
N 47° 45' 25" O 11° 22' 5 " - 606 m über NN
Wetterstation: VantagePro Plus
CallSign-ID APRS: CW0334
Datum Samstag, 30. August 2014
Zeit 22:13 (-2h = UTC-Zeit)
Temperatur Außen
aktuell
14,9 °C
Min.(22:02)
14,9 °C
(2013:) 0,0 °C (16:56)
Max.(15:28)
22,6 °C
(2013:) 25,6 °C (15:26)
Durchschnitt
17,8 °C
(2013:) 15,5 °C
Durchschnitt gestern: 17,8 °C

Max. gestern: 25,6 °C
Luftfeuchte Außen
aktuell
90 %
Min.(15:19)
58 %
(2013:) 30 % (16:07)
Max.(00:23)
95 %
(2013:) 94 % (08:00)
Durchschnitt
84 %
(2013:) 69 %
Absolute Aussen-Feuchte: 11,49 g/m³
Lüften: Sie sollten jetzt nicht lüften, die Luftfeuchtigkeit ist zu hoch
Taupunkt aktuell
13,3 °C
Min.(17:14)
12,9 °C
Max.(00:23)
16,1 °C
Durchschnitt
14,8 °C
Luftdruck
aktuell
1015,1 hPa
+0,9 hPa/3h
Tendenz: gleichbleibend
Min.(01:02)
1013,9 hPa
(2013:) 1016,3 hPa (15:15)
Max.(11:47)
1017,1 hPa
(2013:) 1019,4 hPa (07:30)
Durchschnitt
1015,2 hPa
(2013:) 1018,0 hPa
+0,1 hPa/1h +0,4 hPa/2h +0,6 hPa/6h -1,5 hPa/12h +1,0 hPa/24h
UV-Index aktuell
0,0 UV-I
Belastung:none
Max.(12:51)
0,9 UV-I
Durchschnitt
0,9 UV-I
Solarstrahlung aktuell
0 W/m²
Max.(13:51)
718 W/m²
Durchschnitt
207 W/m²
mögl. Gesamtleistung:
2790 W/m²
Evapotranspiration Aktuell: 0,000 mm
Tag: 1,245 mm
Wettervorhersage veränderlich
Wettervorhersage VantagePro

Klick für 4-Tages-Vorhersage
Zunehmende Bewölkung mit wenig Temperaturänderung.
Schneefallgrenze ~ 2540 m (berechnet)
Wolkenuntergrenze ~ 250 m (berechnet)
Horizontsichtweite ~ dunkel ! - 6-10 km (berechnet)
Windchill aktuell
14,9 °C
Min.(22:02)
14,9 °C
Max.(15:28)
22,6 °C
Durchschnitt
17,8 °C
Wind-Böen aktuell
0,0 km/h (0 Bft)
=
Max.(00:01)
- - 0,0 km/h (0 Bft)
(2013:) 17,7 km/h (15:20)
Durchschnitt
0,0 km/h (0 Bft)
(2013:) 1,0 km/h
Windgeschwindigkeit aktuell
0,0 km/h (0 Bft)
=
Max.(00:01)
N 0,0 km/h (0 Bft)
(2013:) 16,1 km/h (15:38)
Durchschnitt
0,0 km/h (0 Bft)
(2013:) 0,7 km/h
Windrichtung 203 ° / S-SW dominierend
N
Windrichtung Windböen 0 ° / - -
Seegang 0 - glatte See
letzter Frost Erster Frost: - - -
Letzter Frost: 06:16 18.04.2014
Dauer: 2 Stunden, 9 Minuten
  (ab 04:07 18.04.2014)

Erster Frosttag im letzten Jahr: 04.11.2013    Erster Frosttag im vorletzten Jahr 27.10.2012
Letzter Frosttag in diesem Jahr 18.04.2014    Letzter Frosttag im letzten Jahr 08.04.2013
Niederschlag
Klick für Regenradar Bayern
letzte Std. 0,0 mm
letzten 24 Std. 6,1 mm
aktueller Tag 6,1 mm
Gestern 6,1 mm
aktuelle Woche 18,8 mm
aktueller Monat 132,1 mm
letztes Monat 160,3 mm
August Vorjahr 157,5 mm
aktuelles Jahr 627,4 mm
Vorjahr 968,3 mm
Regentage / Jahr 118 Tage
Regentage / Vorjahr 152 Tage
durchschnittlich im August 155,9 mm
Das bedeutet bisher: -23,8 mm
Letzter Niederschlag 00:02 30.08.2014
Es hat also seit 22 h, 11 min nicht mehr geregnet
Schneehöhe 0,0 cm
Mond
Alter des Mondes4 Tage, 19 Stunden, 11 Minuten
Mondaufgang11:23
Mondzenit16:42
Monduntergang21:54
MondphaseÝ 24%
(0% = Neumond, 100% = Vollmond)
letztes Viertel04:06    16. September 2014
erstes Viertel13:12    2. September 2014
nächster Vollmond03:39    9. September 2014
nächster Neumond08:14    24. September 2014
Sonne
Sonnenaufgang gestern06:28    29. August 2014
Sonnenaufgang06:29
Sonnenzenit13:15
Sonnenuntergang19:59
Sonnenaufgang morgen06:31    31. August 2014
Sonnenuntergang morgen19:57    31. August 2014
Tageslänge13:29
Bewölkungsgraddunkel
Sonnenhöchststand51,177 °
Sichtweitedunkel ! - 6-10 km
Elevation-20,625 °
Azimuth-131,117 °
Tagessonnenstunden3:52 Stunden
Wochensonnenstunden21:48 Stunden
Monatssonnenstunden148:47 Stunden
Jahressonnenstunden1113:28 Stunden
Die dargestellten Werte repräsentieren die Daten des aktuellen Tages! Der Luftdruck ist auf Meereshöhe bezogen!
Die Mond-/Sonnen-Daten beziehen sich auf die Standortkoordinaten von 47° 45' 25" Nord  -  11° 22' 5" Ost
Zeit --> Mittel Europäische Sommer Zeit
Die Wettervorhersage wurde berechnet - ohne Gewähr!


Jahres-Eistage (Tmax < 0°C) 0 Vorjahres-Eistage (Tmax < 0°C) 12
Jahres-Frosttage (Tmin <= 0°C) 53 Vorjahres-Frosttage (Tmin <= 0°C) 104
Kalte Tage des Jahres (Tmax < 10°C) 50 Kalte Tage des Vorjahres (Tmax < 10°C) 131
Jahres-Sommertage (Tmax >= 25°C) 41 Vorjahres-Sommertage (Tmax >= 25°C) 62
Heiße Tage des Jahres (Tmax >= 30°C) 12 Heiße Tage Vorjahr (Tmax >= 30°C) 22

Die Jahresanzahlen gelten immer für den Zeitraum 01.01. bis 31.12. des laufenden Jahres.
Sie sind also nur bedingt vergleichbar, können aber einen Anhalt geben ob das Jahr kühler oder wärmer als das vorherige wird.

Monats-Eistage (Tmax < 0°C) 0 Monats-Eistage Vorjahr (Tmax < 0°C) 0
Monats-Frosttage (Tmin <= 0°C) 0 Monats-Frosttage Vorjahr(Tmin <= 0°C) 0
Kalte Tage des Monats(Tmax < 10°C) 0 Kalte Tage des Monats Vorjahr (Tmax < 10°C) 0
Monats-Sommertage (Tmax >= 25°C) 10 Monats-Sommertage Vorjahr (Tmax >= 25°C) 17
Heiße Tage des Monats (Tmax >= 30°C) 1 Heiße Tage des Monats Vorjahr (Tmax >= 30°C) 6

Mit diesen Zahlen kann man sehr gut den jeweiligen aktuellen Monat und den des Vorjahrs vergleichen.

Durchschnitts-Temperatur des aktuellen Monats 16,17 °C
Standardabweichung des Monats -2,31
Normaltemperatur Jahr 9,2 °C
Durchschnitts-Temperatur des aktuellen Jahres 10,83 °C

          Aussen-      Aussen                                                                          Wind         Sonnen        Sonnen
Zeit     tempera.      Feuchte     Luftdruck      Taupunkt     Windchill     Regen        Wind       richtung     Elevation      azimuth
----------------------------------------------------------------------------------------------------------------------------------------
00:01     17,0 °C         94 %     1014,1 hPa     16,0 °C       17,0 °C      0,0 mm     0,0 km/h            N     -30,774 °   -158,511 °
01:00     16,8 °C         95 %     1014,0 hPa     16,0 °C       16,8 °C      0,0 mm     0,0 km/h            N     -33,025 °   -175,481 °
02:00     16,6 °C         95 %     1014,5 hPa     15,8 °C       16,6 °C      0,0 mm     0,0 km/h            N     -32,286 °    166,926 °
03:00     16,3 °C         95 %     1014,7 hPa     15,5 °C       16,3 °C      0,0 mm     0,0 km/h            N     -28,612 °    150,259 °
04:00     16,0 °C         95 %     1014,7 hPa     15,2 °C       16,0 °C      0,0 mm     0,0 km/h            N     -22,518 °    135,270 °
05:00     15,8 °C         95 %     1014,6 hPa     15,0 °C       15,8 °C      0,0 mm     0,0 km/h            N     -14,656 °    122,006 °
06:00     15,6 °C         95 %     1014,7 hPa     14,8 °C       15,6 °C      0,0 mm     0,0 km/h            N      -5,615 °    110,069 °
07:00     15,6 °C         95 %     1015,2 hPa     14,8 °C       15,6 °C      0,0 mm     0,0 km/h            N       4,126 °     98,891 °
08:00     15,8 °C         95 %     1015,8 hPa     15,0 °C       15,8 °C      0,0 mm     0,0 km/h            N      14,168 °     87,841 °
09:00     16,4 °C         95 %     1016,0 hPa     15,6 °C       16,4 °C      0,0 mm     0,0 km/h            N      24,131 °     76,208 °
10:00     16,9 °C         90 %     1016,6 hPa     15,2 °C       16,9 °C      0,0 mm     0,0 km/h            N      33,567 °     63,129 °
11:00     17,4 °C         85 %     1016,7 hPa     14,8 °C       17,4 °C      0,0 mm     0,0 km/h            N      41,850 °     47,542 °
12:00     17,1 °C         89 %     1017,1 hPa     15,3 °C       17,1 °C      0,0 mm     0,0 km/h            N      48,061 °     28,447 °
13:00     19,0 °C         77 %     1016,7 hPa     14,9 °C       19,0 °C      0,0 mm     0,0 km/h         S-SW      51,048 °      5,974 °
14:00     21,0 °C         66 %     1015,9 hPa     14,4 °C       21,0 °C      0,0 mm     0,0 km/h         S-SO      50,023 °    -17,385 °
15:01     22,3 °C         61 %     1015,2 hPa     14,4 °C       22,3 °C      0,0 mm     0,0 km/h         S-SO      45,172 °    -38,637 °
16:00     21,9 °C         61 %     1014,6 hPa     14,0 °C       21,9 °C      0,0 mm     0,0 km/h         N-NO      37,887 °    -55,564 °
17:00     20,1 °C         66 %     1014,7 hPa     13,5 °C       20,1 °C      0,0 mm     0,0 km/h           NO      28,922 °    -69,748 °
18:00     20,3 °C         68 %     1014,4 hPa     14,2 °C       20,3 °C      0,0 mm     0,0 km/h         S-SW      19,143 °    -81,972 °
19:00     19,7 °C         70 %     1014,2 hPa     14,1 °C       19,7 °C      0,0 mm     0,0 km/h         S-SW       9,070 °    -93,204 °
20:00     18,4 °C         78 %     1014,5 hPa     14,5 °C       18,4 °C      0,0 mm     0,0 km/h         S-SW      -0,896 °   -104,220 °
21:00     16,6 °C         86 %     1015,0 hPa     14,2 °C       16,6 °C      0,0 mm     0,0 km/h         S-SW     -10,376 °   -115,686 °
22:00     15,1 °C         90 %     1015,1 hPa     13,5 °C       15,1 °C      0,0 mm     0,0 km/h         S-SW     -18,940 °   -128,211 °
----------------------------------------------------------------------------------------------------------------------------------------
Durch.    17,8 °C         84 %     1015,2 hPa     14,8 °C       17,8 °C      0,0 mm     0,0 km/h

Min.      14,9 °C         58 %     1013,9 hPa     12,9 °C       14,9 °C      0,0 mm     0,0 km/h
Zeit      22:02         15:19       01:02         17:14          22:02       00:01        00:01

Max.      22,6 °C         95 %     1017,1 hPa     16,1 °C       22,6 °C      6,1 mm     0,0 km/h
Zeit      15:28         00:23       11:47         00:23          15:28       00:02        00:01



Grafische Darstellung (Zum Vergrößern einfach Doppelklick auf die Grafik):

Erzeugt mit V2.97.10 von Werner Krenn


Tabellarische 24-Stundenübersicht: Aktuell


Mondphase:

Letztes Update:
23.04.2006
© by B2-Design

© 1999-2013 Werner Krenn / Mischa Thurnherr - Wetterstation Bedien- und Auswertesoftware - V2.97.10

Powered by Hier klicken!